Overview Statistics Trail Chart Weather Telemetry Raw packets
 

This is the latest recevied weather packets stored in our database for station/object 4S6DRJ-13. If no packets are shown the sender has not sent any weather packets the latest 10 day(s).

<< 408 409 410 411 412 413 414 >>
Time Temp. Humidity Pressure Rain* Wind** Luminosity Snow
1787843039 27.78° C 85% 1010.5 hPa 0 mm 0.89 m/s, 212° 0 W/m² -
1787842978 27.78° C 85% 1010.3 hPa 0 mm 0.89 m/s, 225° 0 W/m² -
1787842917 27.78° C 85% 1010.3 hPa 0 mm 0.89 m/s, 249° 0 W/m² -
1787842856 27.78° C 85% 1010.5 hPa 0 mm 1.34 m/s, 239° 0 W/m² -
1787842796 27.78° C 85% 1010.2 hPa 0 mm 0.45 m/s, 207° 0 W/m² -
1787842734 27.78° C 85% 1010.3 hPa 0 mm 0.89 m/s, 245° 0 W/m² -
1787842673 27.78° C 85% 1010.1 hPa 0 mm 0 m/s 0 W/m² -
1787842612 27.78° C 85% 1010.2 hPa 0 mm 0.89 m/s, 199° 0 W/m² -
1787842551 27.78° C 85% 1010.1 hPa 0 mm 0.89 m/s, 222° 0 W/m² -
1787842490 27.78° C 85% 1010.3 hPa 0 mm 0.45 m/s, 220° 0 W/m² -
1787842429 27.78° C 85% 1010.2 hPa 0 mm 0.89 m/s, 120° 0 W/m² -
1787842368 27.78° C 85% 1009.9 hPa 0 mm 0.89 m/s, 266° 0 W/m² -
1787842307 27.78° C 85% 1010 hPa 0 mm 0.45 m/s, 235° 0 W/m² -
1787842246 27.78° C 85% 1010 hPa 0 mm 0 m/s 0 W/m² -
1787842185 27.78° C 85% 1010.1 hPa 0 mm 0 m/s 0 W/m² -
1787842124 27.78° C 85% 1010 hPa 0 mm 1.34 m/s, 237° 0 W/m² -
1787842063 27.78° C 85% 1010.1 hPa 0 mm 0.89 m/s, 225° 0 W/m² -
1787842002 27.78° C 85% 1009.9 hPa 0 mm 0.89 m/s, 223° 0 W/m² -
1787841941 27.78° C 85% 1009.9 hPa 0 mm 0.89 m/s, 223° 0 W/m² -
1787841880 27.78° C 85% 1009.9 hPa 0 mm 0.89 m/s, 172° 0 W/m² -
1787841819 27.78° C 85% 1009.9 hPa 0 mm 0.89 m/s, 211° 0 W/m² -
1787841759 27.78° C 85% 1009.9 hPa 0 mm 0.89 m/s, 181° 0 W/m² -
1787841697 27.78° C 85% 1009.8 hPa 0 mm 0 m/s 0 W/m² -
1787841636 27.78° C 85% 1009.8 hPa 0 mm 0 m/s 0 W/m² -
1787841575 27.78° C 85% 1010 hPa 0 mm 0 m/s 0 W/m² -

* Rain latest hour (hover to see other rain measurements)
** Current wind speed in m/s (hover to see current wind gust speed)